Showing default

NIMBUS 4, 4362

Orbit data source: Space-Track

NIMBUS 4, 4362 is a payload satellite owned by GSFC (US) in SSO that was launched on Wed, 08 Apr 1970 UTC via a THORAD SLV-2G AGENA D launch vehicle from the Air Force Western Test Range (AFWTR). Payload-class satellites include a variety of spacecraft equipped with specific instruments for various scientific and technological missions. These include communications satellites like Starlink; space stations such as the ISS; scientific satellites like the Hubble; Earth observation satellites from companies like Planet Labs, Umbra, and HawkEye 360; GPS; miniature CubeSats for education and research; and military/defense satellites.

Loading next visibility...
Identifier
4362, 1970-025A
Orbit
SSO
Country
Flag of USUS
Related business
Manufacturer
GE/MSVD
Mission
Non-operational Civil Weather
Bus & Motor
NIMBUS, Unknown motor
Mass
619 kg wet, 619 kg dry
Launch date (UTC)
1970-04-08 (55 years ago)
Launch vehicle
THORAD SLV-2G AGENA D
Launch site
Air Force Western Test Range (AFWTR)
Object type
Payload
Rocket body
Debris
Shape & HBR
Cone + 2 Pan, 1.7 m
Radar Cross Section
2.947 m², Large (>1 m²)

Expand to show TLE details & history
Last TLE update: 8 hours ago

TLE from 8 hours ago
0 NIMBUS 4
1 04362U 70025A   25259.23946497 -.00000012  00000-0  55930-4 0  9996
2 04362  99.9502 178.0384 0006992 309.8289 215.5573 13.44735724720026
Epoch: 2025-09-16T05:44Z
TLE epoch observation values (Epoch: 2025-09-16T05:44:49.773Z)
Latitude
14.4087°
Longitude
-81.03157°
Altitude
1,097.994 km
Speed
7.302 km/s
True Right ascension
00h 02m 26s
True Declination
14° 19' 47"
Sunlit
Object was in full shadow at epoch
Visualization orbit readout
Latitude
Unknown
Longitude
Unknown
Altitude
Unknown
Speed
Unknown
Apparent Right ascension
Unknown
Apparent Declination
Unknown
Sunlit
N/A
Visualization observer readout
Local Sidereal Time
06:10:39
Azimuth
Unknown
Elevation
Unknown
Doppler factor
Unknown
Orbital elements
Apogee altitude
1,094.232 km
Perigee altitude
1,083.79 km
Semi-major axis
7,467.148 km
Eccentricity
0.0007
Inclination
99.9502°
RAAN
178.0384°
Arg. of periapsis
309.8289°
True anomaly
215.51074°
Mean anomaly
215.5573°
Eccentric anomaly
215.53402°
Mean motion
3.36365 °/min
Orbital period
107.03 mins
BSTAR
0.00005593
Loading maneuver chart data...
Computing Atmospheric mass density...

Documentation

Showing up to 5 results
|